Time,TemperatureF,DewpointF,PressureIn,WindDirection,WindDirectionDegrees,WindSpeedMPH,WindSpeedGustMPH,Humidity,HourlyPrecipIn,Conditions,Clouds,dailyrainin,SoftwareType,DateUTC
2017-11-24 00:08:00,40.3,32.0,30.03,NNW,333,0.0,0.0,71,0.00,,,0.00,weatherlink.com 1.10,2017-11-24 05:08:00,
2017-11-24 00:38:00,40.3,30.0,30.03,West,273,0.0,0.0,66,0.00,,,0.00,weatherlink.com 1.10,2017-11-24 05:38:00,
2017-11-24 00:53:00,40.4,31.0,30.03,WNW,288,0.0,0.0,69,0.00,,,0.00,weatherlink.com 1.10,2017-11-24 05:53:00,
2017-11-24 01:08:00,40.3,30.0,30.03,WNW,288,0.0,0.0,68,0.00,,,0.00,weatherlink.com 1.10,2017-11-24 06:08:00,
2017-11-24 01:23:00,39.4,30.0,30.03,WNW,288,0.0,0.0,68,0.00,,,0.00,weatherlink.com 1.10,2017-11-24 06:23:00,
2017-11-24 01:38:00,39.5,32.0,30.03,WNW,288,0.0,0.0,74,0.00,,,0.00,weatherlink.com 1.10,2017-11-24 06:38:00,
2017-11-24 02:08:00,39.7,32.0,30.02,NNW,330,0.0,0.0,75,0.00,,,0.00,weatherlink.com 1.10,2017-11-24 07:08:00,
2017-11-24 02:23:00,39.3,32.0,30.02,NNW,330,0.0,0.0,74,0.00,,,0.00,weatherlink.com 1.10,2017-11-24 07:23:00,
2017-11-24 03:08:00,39.5,32.0,30.02,NNW,330,0.0,0.0,75,0.00,,,0.00,weatherlink.com 1.10,2017-11-24 08:08:00,
2017-11-24 03:23:00,38.8,31.0,30.02,NNW,330,0.0,0.0,73,0.00,,,0.00,weatherlink.com 1.10,2017-11-24 08:23:00,
2017-11-24 03:39:00,38.5,31.0,30.02,NNW,330,0.0,0.0,73,0.00,,,0.00,weatherlink.com 1.10,2017-11-24 08:39:00,
2017-11-24 04:08:00,39.5,32.0,30.01,NNW,327,0.0,0.0,75,0.00,,,0.00,weatherlink.com 1.10,2017-11-24 09:08:00,
2017-11-24 04:23:00,38.9,31.0,30.01,NNW,327,0.0,0.0,74,0.00,,,0.00,weatherlink.com 1.10,2017-11-24 09:23:00,
2017-11-24 04:38:00,38.2,32.0,30.01,NNW,327,0.0,0.0,77,0.00,,,0.00,weatherlink.com 1.10,2017-11-24 09:38:00,
2017-11-24 04:53:00,38.8,33.0,30.01,North,11,1.0,6.0,78,0.00,,,0.00,weatherlink.com 1.10,2017-11-24 09:53:00,
2017-11-24 05:08:00,37.9,32.0,30.00,NNW,340,3.0,4.0,80,0.00,,,0.00,weatherlink.com 1.10,2017-11-24 10:08:00,
2017-11-24 05:23:00,37.7,32.0,30.01,NNW,342,0.0,3.0,81,0.00,,,0.00,weatherlink.com 1.10,2017-11-24 10:23:00,
2017-11-24 05:38:00,38.8,33.0,30.01,NNW,345,0.0,7.0,78,0.00,,,0.00,weatherlink.com 1.10,2017-11-24 10:38:00,
2017-11-24 05:53:00,39.4,32.0,30.01,North,360,0.0,0.0,76,0.00,,,0.00,weatherlink.com 1.10,2017-11-24 10:53:00,
2017-11-24 06:09:00,38.5,32.0,30.01,ENE,58,0.0,0.0,78,0.00,,,0.00,weatherlink.com 1.10,2017-11-24 11:09:00,
2017-11-24 06:24:00,39.4,32.0,30.01,NNE,15,0.0,0.0,76,0.00,,,0.00,weatherlink.com 1.10,2017-11-24 11:24:00,
2017-11-24 06:38:00,39.1,32.0,30.01,NNE,15,0.0,0.0,76,0.00,,,0.00,weatherlink.com 1.10,2017-11-24 11:38:00,
2017-11-24 06:54:00,38.7,31.0,30.01,NNE,15,0.0,0.0,75,0.00,,,0.00,weatherlink.com 1.10,2017-11-24 11:54:00,
2017-11-24 07:08:00,38.1,31.0,30.01,NNE,15,0.0,0.0,76,0.00,,,0.00,weatherlink.com 1.10,2017-11-24 12:08:00,